Location: Siemianowice Slaskie
(50.3000°N, 19.0330°E)
Time: 03:56:46
(UTC+01:00)

ISS - Visible Passes

Search period start: 22 March 2023 00:00
Search period end: 01 April 2023 01:00
Orbit: 414 x 423 km, 51.6° (Epoch: 22 March)

Date Brightness Start Highest point End Pass type
(mag) Time Alt. Az. Time Alt. Az. Time Alt. Az.
22 Mar -3.8 18:41:55 10° WSW 18:45:17 82° SSE 18:48:38 10° ENE visible
22 Mar -3.1 20:18:50 10° W 20:21:37 54° NW 20:21:37 54° NW visible
23 Mar -3.6 19:30:57 10° W 19:34:18 68° N 19:35:46 30° ENE visible
23 Mar -0.9 21:07:50 10° WNW 21:08:43 17° WNW 21:08:43 17° WNW visible
24 Mar -3.6 18:43:03 10° W 18:46:25 72° N 18:49:46 10° ENE visible
24 Mar -3.3 20:19:58 10° WNW 20:22:47 59° WNW 20:22:47 59° WNW visible
25 Mar -3.7 19:32:04 10° WNW 19:35:25 72° N 19:36:50 32° E visible
25 Mar -1.0 21:08:55 10° W 21:09:46 16° W 21:09:46 16° W visible
26 Mar -3.6 19:44:08 10° W 19:47:28 68° N 19:50:49 10° E visible
26 Mar -3.2 21:20:58 10° WNW 21:23:46 53° WSW 21:23:46 53° WSW visible
27 Mar -3.8 20:33:01 10° WNW 20:36:23 83° SSW 20:37:45 33° ESE visible
27 Mar -0.8 22:10:07 10° W 22:10:41 13° W 22:10:41 13° W visible
28 Mar -3.7 19:45:01 10° WNW 19:48:24 82° N 19:51:44 10° E visible
28 Mar -2.5 21:21:56 10° W 21:24:40 32° SW 21:24:40 32° SW visible
29 Mar -3.2 20:33:51 10° WNW 20:37:05 47° SSW 20:38:39 26° SE visible
30 Mar -3.5 19:45:47 10° WNW 19:49:07 65° SSW 19:52:26 10° ESE visible
30 Mar -1.5 21:23:14 10° W 21:25:26 16° SW 21:25:34 16° SW visible
31 Mar -2.0 20:34:47 10° W 20:37:33 24° SW 20:39:36 14° SSE visible
